{"data":{"norad_id":55796,"epoch":"2026-09-19T22:29:53.020608Z","epoch_age_seconds":70500,"freshness":"FRESH","line1":"1 55796U 23029A   26262.93741922  .00000059  00000+0  11208-3 0  9991","line2":"2 55796  87.9130 255.5572 0002235  97.3023 262.8364 13.20773051173651","mean_motion":13.20773051,"eccentricity":0.0002235,"inclination_deg":87.913,"raan_deg":255.5572,"arg_perigee_deg":97.3023,"mean_anomaly_deg":262.8364,"bstar":0.00011208,"rev_number":17365,"period_min":109.02705797258,"perigee_km":1180.0790094786,"apogee_km":1183.4582873034,"semimajor_km":7559.905648391,"source":"CELESTRAK","updated_at":"2026-09-20T09:00:44.758746Z"}}